Regional Weather Roundup
Issued by NWS

Home | Current Version | Previous Version | Text Only | Print | Product List | Glossary On
Versions: 1 2 3 4 5 6 7 8 9 10 11 12 13 14 15 16 17 18 19 20 21 22 23 24 25 26 27 28 29 30 31 32 33 34 35 36 37 38 39 40 41 42 43 44 45 46 47 48 49 50
000
ASUS43 KTOP 011208
RWRKS

WEATHER ROUNDUP FOR KANSAS
NATIONAL WEATHER SERVICE GOODLAND KS
700 AM CDT WED OCT 01 2014

NOTE:  "FAIR" INDICATES FEW OR NO CLOUDS BELOW 12,000 FEET WITH NO
SIGNIFICANT WEATHER AND/OR OBSTRUCTIONS TO VISIBILITY.

KSZ001>006-013>018-027>032-041>047-011300-
NORTHWEST KANSAS

CITY           SKY/WX    TMP DP  RH WIND       PRES   REMARKS
GOODLAND       CLEAR     47  43  86 NW5       29.84R
6HR MIN TEMP:  46; 6HR MAX TEMP:  57;

HAYS           CLOUDY    57  54  88 CALM      29.73S VSB 1/4
HILL CITY      FOG       60  60 100 CALM      29.75R VSB 1/4
6HR MIN TEMP:  60; 6HR MAX TEMP:  64;

RUSSELL        FOG       58  57  97 CALM      29.71R VSB 1/4
6HR MIN TEMP:  58; 6HR MAX TEMP:  64;

$$

KSZ061>065-074>080-084>089-011300-
SOUTHWEST KANSAS

CITY           SKY/WX    TMP DP  RH WIND       PRES   REMARKS
DODGE CITY     CLEAR     54  45  71 N6        29.74R
6HR MIN TEMP:  52; 6HR MAX TEMP:  61;

GARDEN CITY    CLEAR     53  46  77 N10       29.76R
6HR MIN TEMP:  51; 6HR MAX TEMP:  60;

GREAT BEND     CLEAR     55  50  82 CALM      29.73S
LIBERAL        CLEAR     54  45  71 NW8       29.76R
PRATT          CLEAR     63  55  77 SE8       29.73R
$$

KSZ066>073-081>083-090>101-011300-
SOUTHEAST KANSAS

CITY           SKY/WX    TMP DP  RH WIND       PRES   REMARKS
CHANUTE        PTCLDY    69  62  78 S12       29.76S
6HR MIN TEMP:  68; 6HR MAX TEMP:  71;

COFFEYVILLE    CLOUDY    70  62  76 S12       29.76S
6HR MIN TEMP:  68; 6HR MAX TEMP:  70; 6HR PCP: TRACE;

HUTCHINSON     PTCLDY    67  63  87 S8        29.73R
6HR MIN TEMP:  67; 6HR MAX TEMP:  73; 6HR PCP: TRACE;

MEDICINE LODGE   N/A     66  63  90 E7        29.71R
NEWTON         PTCLDY    66  61  82 S8        29.76R
PARSONS        MOCLDY    71  63  75 S8        29.78S
6HR MIN TEMP:  69; 6HR MAX TEMP:  71;

WICHITA INTL   MOCLDY    69  64  84 SE9       29.72S
6HR MIN TEMP:  69; 6HR MAX TEMP:  74;

WICHITA JABRA  CLOUDY    68  64  87 S9        29.73R
6HR MIN TEMP:  67; 6HR MAX TEMP:  72;

WICHITA MCCONL PTCLDY    69  68  99 SE8       29.74R
WINFIELD       CLOUDY    69  64  84 S29G39    29.73F THUNDER
6HR MIN TEMP:  69; 6HR MAX TEMP:  72; 6HR PCP: TRACE;

$$

KSZ007>012-019>026-033>040-048>060-102>105-011300-
NORTHEAST KANSAS

CITY           SKY/WX    TMP DP  RH WIND       PRES   REMARKS
CONCORDIA      CLEAR     61  61 100 SW5       29.71R FOG
6HR MIN TEMP:  60; 6HR MAX TEMP:  65;

EMPORIA        PTCLDY    67  63  87 S16       29.72S
6HR MIN TEMP:  67; 6HR MAX TEMP:  70; 6HR PCP: TRACE;

LAWRENCE       MOCLDY    64  62  93 E6        29.75S
6HR MIN TEMP:  63; 6HR MAX TEMP:  71; 6HR PCP:  0.09;

MANHATTAN      CLEAR     67  65  93 SW8       29.70R
6HR MIN TEMP:  66; 6HR MAX TEMP:  70; 6HR PCP:  1.00;

MARYSVILLE     CLOUDY    63  63 100 CALM      29.71R
OLATHE IND     MOCLDY    67  61  81 S6        29.76S
6HR MIN TEMP:  67; 6HR MAX TEMP:  68; 6HR PCP:  0.01;

OLATHE EXE     MOCLDY    67  61  81 S7        29.76S
6HR MIN TEMP:  65; 6HR MAX TEMP:  68; 6HR PCP:  0.01;

SALINA         PTCLDY    64  62  93 NW6       29.72R
6HR MIN TEMP:  64; 6HR MAX TEMP:  70; 6HR PCP: TRACE;

TOPEKA BILLARD MOCLDY    65  64  97 E6        29.73F
6HR MIN TEMP:  65; 6HR MAX TEMP:  75; 6HR PCP:  0.09;

TOPEKA FORBES  CLOUDY    66  64  93 SE5       29.74S
6HR MIN TEMP:  65; 6HR MAX TEMP:  73; 6HR PCP:  0.07;

$$


USA.gov is the U.S. government's official web portal to all federal, state and local government web resources and services.